Location: Luna
(33.8188°N, 108.9564°W)
Time: 21:02:59
(UTC+00:00)

N. Korean satellite - Pass Details

Date: 03 December 2022
Orbit: 407 x 442 km, 97.3° (Epoch: 05 February)

Event Time Altitude Azimuth Distance (km) Brightness Sun altitude
Rises 00:32:25 0° 197° (SSW) 2,416 10.8 -5.7°
Reaches altitude 10° 00:34:47 10° 215° (SW) 1,565 10.2 -6.1°
Maximum altitude 00:37:20 20° 264° (W) 1,102 9.6 -6.6°
Drops below altitude 10° 00:39:56 10° 314° (NW) 1,600 9.5 -7.1°
Sets 00:42:23 0° 332° (NNW) 2,490 10.3 -7.6°
